Printer-friendly version

IAU Minor Planet Center

Minor Planet Center

MPEC 2006-L60 : 2003 YL

The following Minor Planet Electronic Circular may be linked-to from your own Web pages, but must not otherwise be redistributed electronically.


Read MPEC 2006-L59 Read MPEC 2006-L61


M.P.E.C. 2006-L60                                Issued 2006 June 14, 04:09 UT

     The Minor Planet Electronic Circulars contain information on unusual
         minor planets and routine data on comets.  They are published
   on behalf of Commission 20 of the International Astronomical Union by the
          Minor Planet Center, Smithsonian Astrophysical Observatory,
                          Cambridge, MA 02138, U.S.A.

                  Supported in part by the Brinson Foundation
                  Supported in part by the TABASGO Foundation
             Prepared using the Tamkin Foundation Computer Network

                              MPC@CFA.HARVARD.EDU
          URL http://cfa-www.harvard.edu/iau/mpc.html  ISSN 1523-6714

                                    2003 YL

                           Revision to MPEC 2003-Y19

Additional Observations:
     K03Y00L  C2002 03 06.30280 10 37 36.33 -03 24 20.0          19.6 R EL060644
     K03Y00L  C2002 03 06.31669 10 37 33.73 -03 24 08.9          20.0 R EL060644
     K03Y00L  C2002 03 06.33544 10 37 30.29 -03 23 55.1          20.2 R EL060644
     K03Y00L  C2002 03 14.28920 10 13 13.46 -01 33 43.8          20.0 R EL060644
     K03Y00L  C2002 03 14.31058 10 13 09.35 -01 33 24.5          20.3 R EL060644
     K03Y00L  C2002 03 14.33163 10 13 05.39 -01 33 05.3          19.8 R EL060644
     K03Y00L  C2002 03 15.28874 10 10 09.50 -01 18 39.9          20.3 R EL060644

Observer details:
644 Palomar Mountain/NEAT.  Observers E. F. Helin, S. Pravdo, K. Lawrence,
    K. Kuluhiwa, M. Hicks.  Measurer R. Matson.  1.2-m Schmidt + CCD.

Orbital elements:
2003 YL                                                  Earth MOID = 0.0516 AU
Epoch 2006 Mar. 6.0 TT = JDT 2453800.5                  MPC
M 346.33954              (2000.0)            P               Q
n   0.80347771     Peri.   29.26819     +0.77875290     +0.62063890
a   1.1459179      Node   292.08049     -0.59304090     +0.68083110
e   0.6323068      Incl.    5.65961     -0.20456398     +0.38894262
P   1.23           H   19.9           G   0.15           U   5
Residuals in seconds of arc
020306 644  0.5+  0.7-    031218 854  0.0   0.3+    031224 151  0.2-  0.1-
020306 644  0.3-  0.0     031218 854  0.2-  0.3+    031225 118  0.9+  0.7+
020306 644  0.2-  0.2-    031218 926  0.6+  0.1-    031225 118  1.8+  0.1+
020314 644  0.6+  0.1+    031218 926  0.0   0.2-    031225 118  0.1+  0.3+
020314 644  0.4-  0.2+    031218 926  0.1-  0.2-    031226 A41  1.8-  0.2-
020314 644  0.1-  0.4+    031218 926  0.6+  0.8+    031226 A41  0.6-  1.1-
020315 644  0.1-  0.1+    031218 926  0.2-  0.3+    031228 704  0.4+  0.0
031217 699  0.2-  0.1-    031218 926  0.5-  0.1-    031228 704  0.7+  0.0
031217 699  0.1+  0.1+    031218 704  0.3+  0.5+    031228 704  0.6+  0.1+
031217 699  0.2-  0.3-    031218 704  0.7+  0.5+    031228 704  0.0   0.2-
031217 699  0.1-  0.6+    031218 704 (1.4+  2.4+)   031228 704  0.2+  0.2+
031217 026  0.2+  0.1+    031218 704  1.0+  0.7+    031228 704  0.2+  0.1-
031217 026  0.2+  0.3-    031218 704  1.2+  0.6+    031228 704  0.7-  0.1-
031217 176  0.1-  0.1-    031218 333  0.6+  0.6+    031228 704  0.9-  0.2-
031217 176  0.3-  0.2-    031218 333  0.2-  0.0     031228 704  0.8-  0.2-
031217 176  0.3-  0.2-    031220 941  0.1+  0.0     031228 704  0.5-  0.4+
031217 176  0.3-  0.2-    031220 941  0.2-  0.1+    031231 859  0.0   0.7-
031217 176  0.4-  0.3-    031220 941  0.3-  0.2+    031231 859  0.2+  0.4-
031218 A50 (2.2+  1.2+)   031220 941  0.2-  0.1+    031231 859  0.1+  0.1-
031218 A50  1.3+  1.8+    031220 941  0.3-  0.1+    040102 084  0.0   0.2+
031218 A50 (2.2+  1.2+)   031223 704  0.5+  0.5+    040102 941  0.8-  0.9+
031218 J95  0.4+  0.2-    031223 704  0.8+  0.7+    040102 941  0.4-  0.3+
031218 J95  0.3-  0.2-    031223 704  0.5+  0.4+    040102 941  0.3-  0.1+
031218 J95  0.5-  0.0     031223 704  0.2+  0.1+    040102 941  0.1+  0.3-
031218 649  0.7-  0.5-    031224 170  0.3-  0.3-    040105 J87  0.2-  0.1+
031218 649  0.7-  0.4-    031224 170  0.3-  0.6-    040105 J87  0.7+  0.7+
031218 649  0.2-  0.1-    031224 170  0.5-  0.7-    040112 926  0.0   0.1+
031218 012  0.1-  0.5-    031224 170  0.2-  0.9-    040112 926  0.3+  0.1-
031218 012  0.3+  0.8-    031224 151  1.1+  0.8+    040112 926  0.1-  0.1-
031218 012  0.6-  0.6-    031224 151  0.1+  0.1-    040127 715  0.2-  0.1+
031218 012  0.7+  0.4+    031224 151  0.1+  0.1+    040127 715  0.1+  0.1+
031218 012  0.5-  0.5-    031224 151  0.0   0.2-    040127 715  0.4+  0.2-
031218 012  1.0+  0.1-    031224 151  0.3-  0.3-
031218 854  0.0   0.1+    031224 151  0.3-  0.2-

Gareth V. Williams           (C) Copyright 2006 MPC           M.P.E.C. 2006-L60

Read MPEC 2006-L59 Read MPEC 2006-L61


Our Web policy. Index to the CBAT/MPC/ICQ pages.


Valid HTML 4.01!